Location: Napa Soda Springs
(38.3907°N, 122.2794°W)
Time: 21:41:08
(UTC+00:00)

ALOS - Pass Details

Date: 29 October 2020
Orbit: 683 x 685 km, 97.9° (Epoch: 24 November)

Event Time Altitude Azimuth Distance (km) Brightness Sun altitude
Rises 13:58:24 0° 353° (N) 3,055 5.4 -7.4°
Reaches altitude 10° 14:01:23 10° 333° (NNW) 2,134 4.4 -6.8°
Maximum altitude 14:04:15 16° 295° (WNW) 1,736 3.7 -6.3°
Drops below altitude 10° 14:07:07 10° 257° (WSW) 2,126 4.3 -5.7°
Sets 14:10:05 0° 236° (SW) 3,037 5.2 -5.2°
